This is the latest recevied weather packets stored in our database for station/object XE1E-15. If no packets are shown the sender has not sent any weather packets the latest 10 day(s).
| Time | Temp. | Humidity | Pressure | Rain* | Wind** | Luminosity | Snow |
|---|---|---|---|---|---|---|---|
| 1777906121 | 25° C | 53% | 1025.9 hPa | - | - | - | - |
| 1777905161 | 26.67° C | 51% | 1025.8 hPa | - | - | - | - |
| 1777904201 | 25.56° C | 56% | 1025.7 hPa | - | - | - | - |
| 1777903241 | 25° C | 56% | 1025.7 hPa | - | - | - | - |
| 1777902281 | 24.44° C | 60% | 1025.5 hPa | - | - | - | - |
| 1777901352 | 23.89° C | 64% | 1025.5 hPa | - | - | - | - |
| 1777901321 | 23.89° C | 64% | 1025.5 hPa | - | - | - | - |
| 1777900361 | 23.89° C | 64% | 1025.5 hPa | - | - | - | - |
| 1777899399 | 23.33° C | 67% | 1025.5 hPa | - | - | - | - |
| 1777898439 | 22.78° C | 66% | 1025.1 hPa | - | - | - | - |
| 1777897479 | 22.78° C | 68% | 1024.9 hPa | - | - | - | - |
| 1777896519 | 22.78° C | 69% | 1024.6 hPa | - | - | - | - |
| 1777895559 | 22.78° C | 70% | 1024.5 hPa | - | - | - | - |
| 1777894599 | 22.78° C | 69% | 1024.6 hPa | - | - | - | - |
| 1777893639 | 22.78° C | 67% | 1024.4 hPa | - | - | - | - |
| 1777892679 | 22.22° C | 68% | 1024.2 hPa | - | - | - | - |
| 1777891719 | 22.78° C | 67% | 1024.2 hPa | - | - | - | - |
| 1777890759 | 22.78° C | 66% | 1024.3 hPa | - | - | - | - |
| 1777889798 | 22.78° C | 65% | 1024.3 hPa | - | - | - | - |
| 1777888838 | 22.78° C | 65% | 1024.3 hPa | - | - | - | - |
| 1777887878 | 22.78° C | 64% | 1024.3 hPa | - | - | - | - |
| 1777886918 | 23.33° C | 62% | 1024.4 hPa | - | - | - | - |
| 1777885958 | 23.89° C | 61% | 1024.4 hPa | - | - | - | - |
| 1777884553 | 22.78° C | 64% | 1024.5 hPa | - | - | - | - |
| 1777884520 | 22.78° C | 64% | 1024.5 hPa | - | - | - | - |
* Rain since midnight (hover to see other rain measurements)
** Current wind speed in m/s (hover to see current wind gust speed)